Hlavní strana
METAR-TAF:

METAR-TAF

Letiště :

Fairfield County Airport

Lancaster, Ohio, Spojené státy americké

zeměpisná šířka: 39-45-26N, zeměpisná délka: 082-39-48W, výška: 264 m

Aktuální stav počasí

Zpráva byla vytvořena před 44 minutami, v 02:53 UTC
Bezvětří
Teplota 1°C
Vlhkost vzduchu 93%
Tlak 1030 hPa
Viditelnost: 16.1 km
Jasno

METAR: KLHQ 190253Z AUTO 00000KT 10SM CLR 01/00 A3041 RMK AO2 SLP305 T00110000 57007

Čas: 23:37 (03:37 UTC)


TAF: chybějící

Stav a předpovědi počasí z více než 4 000 letišť (zprávy METAR a TAF).

Červené a žluté tečky na mapě představují dostupné meteorologické stanice.

Když kurzor umístíte na tečku, zobrazí se název stanice.

Pak kliknutím zobrazíte stav a předpověď počasí.

Chcete-li změnit mapu, kliknutím na zelené tlačítko se znaménkem +mapu přiblížíte, kliknutím na zelené tlačítko se znaménkem – mapu oddálíte a kliknutím na zelené šipky přejdete na sousední mapy.


METAR-TAF: